[[{"header":{"parameterUnit":"m.s-1","parameterCategory":2,"la1":30.2991,"la2":30.254,"lo1":-89.0895,"lo2":-89.0444,"dy":0.0017,"dx":0.0017,"nx":28,"ny":28,"refTime":"2025-08-08T21:00:00:Z","depth":"0","parameterNumber":2,"parameterNumberName":"U-component_of_CURRENTS"},"data":[0,0,0,0,0,0,0,0,0,0,0,0,0,0,0,0,0,0,0,0,0,0,0,0,0,0,0,0,0,0,0,0,0,0,0,0,0,0,0,0,0,0,0,0,0,0,0,0,0,0,0,0,0,0,0,0,0,0,0.1988,0.1989,0,0.2019,0.2019,0.2019,0.2011,0.2011,0.201,0.201,0.1995,0.1995,0.1995,0,0,0,0,0,0,0,0,0,0,0,0,0,0.1921,0.1922,0.1988,0.1989,0.1989,0.2019,0.2019,0.2019,0.2011,0.2011,0.201,0.201,0.1995,0.1995,0.1995,0,0,0,0,0,0,0,0,0,0,0,0,0,0.1948,0.1922,0.1988,0.1991,0.1992,0.2019,0.2019,0.2019,0.2011,0.2011,0.201,0.201,0.1995,0.1995,0.1995,0.2004,0,0,0.1994,0.1994,0,0,0,0,0,0,0,0,0.1946,0.195,0.199,0.1991,0.1992,0.2013,0.199,0.2013,0.2011,0.2001,0.201,0.2009,0.1999,0.1998,0.2002,0.2004,0.2003,0.1994,0.1994,0.1994,0.1994,0,0,0,0,0,0,0,0.1945,0.1949,0.1997,0.1991,0.1992,0.1991,0.1994,0.1994,0.1999,0.2002,0.2002,0.201,0.1999,0.2002,0.2001,0.2003,0.1994,0.1994,0.1994,0.1994,0.2007,0.2008,0,0,0,0,0,0,0.1948,0.1947,0.1996,0.1999,0.1971,0.1992,0.1996,0.2004,0.2,0.2,0.201,0.201,0.2003,0.2002,0.2001,0.2004,0.1994,0.1994,0.1994,0.2007,0.2007,0.2008,0,0,0,0,0,0,0.1946,0.1952,0.1995,0.1976,0.1981,0.1994,0.2004,0.2005,0.2009,0.2008,0.2006,0.2013,0.2002,0.2001,0.2001,0.2004,0.1994,0.1994,0.2006,0.2007,0.2007,0.2016,0,0,0,0,0,0,0.1944,0.1951,0.1957,0.1976,0.1983,0.2013,0.2005,0.2007,0.2016,0.2015,0.201,0.2008,0.2002,0.2001,0.2,0.2003,0.1994,0.2006,0.2006,0.2007,0.2015,0.2016,0.2018,0,0,0,0,0,0.1941,0.195,0.1957,0.1963,0.1991,0.2014,0.2017,0.2023,0.2017,0.2022,0.2016,0.2008,0.2006,0.2001,0.2,0.2003,0.2005,0.2006,0.2007,0.2014,0.2016,0.2018,0,0,0,0,0,0,0.1919,0.1951,0.1958,0.1975,0.1996,0.2014,0.2019,0.2025,0.2025,0.2019,0.2013,0.2011,0.2015,0.201,0.2005,0.2011,0.2005,0.2006,0.201,0.2012,0.2013,0.2001,0.1994,0,0,0,0,0,0.192,0.1933,0.1965,0.1975,0.1988,0.2004,0.2014,0.202,0.2026,0.2025,0.2024,0.2019,0.202,0.2015,0.2017,0.2018,0.2038,0.202,0.2022,0.2023,0.2013,0.2033,0.2035,0.2011,0.2011,0.2011,0,0,0.1911,0.1932,0.1937,0.1972,0.1985,0.2,0.2007,0.2023,0.2027,0.2023,0.2023,0.2028,0.2023,0.2025,0.2026,0.2019,0.2052,0.2024,0.2025,0.2014,0.2034,0.2036,0.2038,0.2011,0.2011,0.2011,0,0,0.19,0.1923,0.1931,0.1953,0.1982,0.1995,0.2001,0.2025,0.2028,0.2036,0.2033,0.2035,0.2039,0.2033,0.203,0.2041,0.2064,0.2049,0.2039,0.2058,0.206,0.2062,0.2141,0.2149,0.2044,0.2044,0.2044,0,0.1887,0.1907,0.1936,0.1953,0.1966,0.1992,0.2002,0.2013,0.203,0.2032,0.2035,0.2043,0.2039,0.2036,0.2038,0.2043,0.208,0.2032,0.206,0.2062,0.2063,0.2143,0.2152,0.2044,0.2044,0.2044,0.2044,0,0.1887,0.1904,0.1911,0.194,0.1957,0.1971,0.1997,0.2008,0.2018,0.2028,0.2038,0.2041,0.2045,0.2047,0.2042,0.2051,0.2087,0.2065,0.2054,0.2066,0.2151,0.216,0.2045,0.2045,0.2045,0.2044,0,0,0.185,0.19,0.1902,0.1912,0.1952,0.1963,0.1976,0.1995,0.2005,0.2019,0.2034,0.2027,0.204,0.2038,0.2042,0.2048,0.2106,0.2059,0.206,0.2137,0.2203,0.2342,0.2366,0.2091,0.2091,0.2091,0.2275,0,0.1838,0.1862,0.1891,0.1902,0.1917,0.1947,0.1957,0.1976,0.2,0.2025,0.203,0.2052,0.2036,0.2052,0.2053,0.2102,0.2124,0.2062,0.2179,0.2184,0.2303,0.2378,0.2365,0.2536,0.2285,0.2286,0.2288,0,0.1828,0.1847,0.1859,0.1889,0.1897,0.1906,0.1933,0.195,0.199,0.2013,0.2034,0.2062,0.2094,0.2071,0.215,0.2118,0.2154,0.2181,0.2189,0.2314,0.2339,0.2473,0.2563,0.2483,0.2302,0.2301,0.23,0,0.1788,0.1822,0.1827,0.1839,0.1879,0.1882,0.19,0.1939,0.1974,0.2019,0.2076,0.2094,0.217,0.2173,0.2279,0.2207,0.2396,0.2303,0.2462,0.2475,0.2483,0.2497,0.2501,0.2335,0.2335,0.2334,0.2334,0,0.1769,0.177,0.1808,0.1812,0.1821,0.1854,0.188,0.1905,0.1973,0.2043,0.2075,0.2172,0.2199,0.2326,0.2328,0.2497,0.2452,0.2492,0.2531,0.2495,0.2507,0.2452,0.2392,0.2341,0.234,0.2338,0.2337,0,0.1727,0.1753,0.1762,0.1794,0.1806,0.1812,0.1884,0.1913,0.1989,0.2095,0.2126,0.2278,0.246,0.2538,0.263,0.2637,0.2671,0.2777,0.2785,0.282,0.2832,0.2775,0.2736,0.2638,0.2937,0.2941,0.2945,0,0.1707,0.171,0.1744,0.1759,0.1774,0.1804,0.1832,0.1902,0.1963,0.2177,0.2241,0.2474,0.2635,0.2894,0.2971,0.3075,0.2891,0.3102,0.2925,0.2873,0.2834,0.2652,0.2553,0.2957,0.296,0.2963,0.2966,0,0.1671,0.1684,0.1697,0.1736,0.176,0.1796,0.1856,0.1913,0.2036,0.2156,0.2367,0.2518,0.2855,0.3015,0.3231,0.3255,0.2971,0.3167,0.3071,0.2839,0.2674,0.2588,0.2836,0.2992,0.2989,0.2987,0.2986,0.2985,0.1643,0.1648,0.168,0.1713,0.1744,0.1789,0.18,0.1905,0.2015,0.2191,0.2393,0.2607,0.2949,0.3259,0.3291,0.3359,0.3193,0.3226,0.3167,0.299,0.2861,0.3227,0.3448,0.3448,0.3448,0.3448,0.3448,0,0.162,0.1638,0.1664,0.1696,0.1711,0.1746,0.1813,0.1822,0.193,0.2163,0.2338,0.2721,0.2982,0.3201,0.3423,0.3337,0.3102,0.3247,0.2916,0.2814,0.3129,0.3097,0.3301,0.3301,0.3301,0.3301,0.3301,0.3301,0.161,0.1627,0.1646,0.1662,0.1678,0.1661,0.1679,0.1718,0.1843,0.2072,0.2291,0.2516,0.2942,0.3315,0.3358,0.3279,0.2929,0.2906,0.2773,0.2954,0.2942,0.2931,0.2883,0.3039,0.3038,0.2339,0.2334,0.233]},{"header":{"parameterUnit":"m.s-1","parameterCategory":2,"la1":30.2991,"la2":30.254,"lo1":-89.0895,"lo2":-89.0444,"dy":0.0017,"dx":0.0017,"nx":28,"ny":28,"refTime":"2025-08-08T21:00:00:Z","depth":"0","parameterNumber":3,"parameterNumberName":"V-component_of_CURRENTS"},"data":[0,0,0,0,0,0,0,0,0,0,0,0,0,0,0,0,0,0,0,0,0,0,0,0,0,0,0,0,0,0,0,0,0,0,0,0,0,0,0,0,0,0,0,0,0,0,0,0,0,0,0,0,0,0,0,0,0,0,-0.009,-0.0091,0,-0.0163,-0.0164,-0.0164,-0.0209,-0.0209,-0.021,-0.021,-0.0302,-0.0304,-0.0307,0,0,0,0,0,0,0,0,0,0,0,0,0,-0.0015,-0.0016,-0.009,-0.0091,-0.0092,-0.0163,-0.0164,-0.0165,-0.0209,-0.0209,-0.021,-0.021,-0.0301,-0.0304,-0.0307,0,0,0,0,0,0,0,0,0,0,0,0,0,-0.0064,-0.0017,-0.009,-0.0122,-0.0126,-0.0162,-0.0164,-0.0165,-0.0209,-0.0209,-0.021,-0.021,-0.03,-0.0304,-0.0307,-0.0322,0,0,-0.0318,-0.0319,0,0,0,0,0,0,0,0,-0.0061,-0.0067,-0.0117,-0.012,-0.0124,-0.0177,-0.0171,-0.0218,-0.0209,-0.0178,-0.021,-0.021,-0.0262,-0.0268,-0.0282,-0.0327,-0.0331,-0.0318,-0.032,-0.0321,-0.0322,0,0,0,0,0,0,0,-0.0058,-0.0064,-0.0119,-0.0117,-0.0122,-0.0142,-0.0149,-0.018,-0.0218,-0.0181,-0.0184,-0.0191,-0.0264,-0.0278,-0.0284,-0.0332,-0.0318,-0.0321,-0.0323,-0.0324,-0.0411,-0.0411,0,0,0,0,0,0,-0.0046,-0.0061,-0.0117,-0.0121,-0.0092,-0.0143,-0.0151,-0.016,-0.0217,-0.0226,-0.0191,-0.0193,-0.0272,-0.028,-0.0287,-0.033,-0.0321,-0.0325,-0.0327,-0.0411,-0.0411,-0.0411,0,0,0,0,0,0,-0.0045,-0.0051,-0.0114,-0.0092,-0.0102,-0.0143,-0.0154,-0.0161,-0.0177,-0.0225,-0.0234,-0.0199,-0.0273,-0.0283,-0.0319,-0.0333,-0.0326,-0.0329,-0.041,-0.0411,-0.0411,-0.0401,0,0,0,0,0,0,-0.0042,-0.005,-0.0053,-0.0092,-0.0102,-0.0137,-0.0154,-0.0162,-0.0181,-0.0184,-0.0235,-0.0243,-0.0274,-0.0313,-0.0322,-0.0337,-0.0332,-0.041,-0.041,-0.0411,-0.0401,-0.0401,-0.0401,0,0,0,0,0,-0.0039,-0.0046,-0.0052,-0.0059,-0.0105,-0.0137,-0.0145,-0.0176,-0.018,-0.019,-0.0223,-0.0242,-0.0323,-0.0317,-0.0327,-0.0343,-0.041,-0.041,-0.0411,-0.0401,-0.0401,-0.0401,0,0,0,0,0,0,-0.0018,-0.0052,-0.006,-0.0077,-0.0103,-0.0145,-0.0157,-0.0172,-0.0204,-0.0207,-0.0247,-0.0259,-0.0296,-0.0317,-0.0309,-0.0368,-0.0369,-0.0371,-0.0357,-0.0358,-0.0358,-0.0354,-0.0335,0,0,0,0,0,-0.0011,-0.0024,-0.0058,-0.0071,-0.0083,-0.0116,-0.0132,-0.0151,-0.0184,-0.0198,-0.0233,-0.0269,-0.0306,-0.0328,-0.0362,-0.0394,-0.0401,-0.0409,-0.0409,-0.0409,-0.0413,-0.0445,-0.0448,-0.0413,-0.0413,-0.0413,0,0,-0.0007,-0.0026,-0.0034,-0.0067,-0.0089,-0.0113,-0.0127,-0.015,-0.0171,-0.0203,-0.024,-0.027,-0.0313,-0.0353,-0.0371,-0.0373,-0.0417,-0.041,-0.041,-0.0413,-0.0445,-0.0449,-0.0452,-0.0413,-0.0413,-0.0413,0,0,-0.0009,-0.002,-0.0034,-0.0054,-0.0084,-0.0106,-0.011,-0.0148,-0.0167,-0.0203,-0.0232,-0.0268,-0.0321,-0.0359,-0.0384,-0.0402,-0.0414,-0.0409,-0.0412,-0.0443,-0.0446,-0.0449,-0.0433,-0.0435,-0.0411,-0.0411,-0.0411,0,-0.0003,-0.0023,-0.0043,-0.0062,-0.0075,-0.0101,-0.0117,-0.0145,-0.019,-0.0202,-0.0213,-0.0291,-0.0328,-0.038,-0.0391,-0.0404,-0.0405,-0.0409,-0.0443,-0.0446,-0.0449,-0.0433,-0.0436,-0.0411,-0.0411,-0.0411,-0.0411,0,-0.002,-0.0033,-0.0042,-0.0073,-0.009,-0.0106,-0.014,-0.0157,-0.0176,-0.0203,-0.0248,-0.03,-0.034,-0.0365,-0.0389,-0.0432,-0.0417,-0.0437,-0.0442,-0.0452,-0.0434,-0.0437,-0.041,-0.041,-0.041,-0.041,0,0,-0.0012,-0.0046,-0.0049,-0.0051,-0.0091,-0.0101,-0.0133,-0.0164,-0.0161,-0.0224,-0.0227,-0.0321,-0.0333,-0.0362,-0.0395,-0.0437,-0.0457,-0.0446,-0.0448,-0.0428,-0.0489,-0.0417,-0.0412,-0.0484,-0.0485,-0.0486,-0.0456,0,-0.0017,-0.0038,-0.006,-0.0074,-0.0081,-0.0107,-0.0123,-0.0151,-0.017,-0.0175,-0.0245,-0.0257,-0.0336,-0.033,-0.0397,-0.0423,-0.0467,-0.046,-0.0485,-0.0485,-0.0419,-0.0415,-0.0394,-0.0362,-0.0459,-0.0459,-0.0459,0,-0.0024,-0.0033,-0.0043,-0.0048,-0.0052,-0.0062,-0.0061,-0.0078,-0.0104,-0.011,-0.0157,-0.0186,-0.0246,-0.0299,-0.0402,-0.039,-0.0447,-0.0487,-0.0487,-0.0429,-0.0419,-0.0374,-0.0362,-0.0578,-0.0463,-0.0463,-0.0463,0,0.0011,-0.0016,-0.0012,-0.002,-0.0037,-0.0033,-0.0037,-0.0055,-0.0019,-0.0045,0.0011,-0.0112,-0.008,-0.0227,-0.0304,-0.0352,-0.0385,-0.0457,-0.0457,-0.045,-0.0441,-0.0432,-0.0643,-0.055,-0.055,-0.055,-0.055,0,0.0024,0.0029,0.0012,0.0017,0.005,0.0017,0.007,0.0051,0.0086,0.0186,0.0067,0.0156,-0.0058,-0.009,-0.025,-0.032,-0.0343,-0.0449,-0.0445,-0.0431,-0.0422,-0.0616,-0.073,-0.0549,-0.0549,-0.0549,-0.0549,0,0.0074,0.005,0.0069,0.0064,0.0072,0.0105,0.0175,0.0232,0.0247,0.0388,0.0408,0.039,0.0361,0.016,-0.0,-0.0167,-0.0389,-0.0324,-0.0263,-0.0254,-0.049,-0.06,-0.0748,-0.0824,-0.0347,-0.0345,-0.0344,0,0.01,0.011,0.0131,0.0176,0.0184,0.0238,0.0299,0.0313,0.0422,0.0574,0.0685,0.0696,0.0765,0.0548,0.0241,-0.0018,-0.0255,-0.0183,-0.0306,-0.0492,-0.0615,-0.0703,-0.0764,-0.0281,-0.0279,-0.0277,-0.0276,0,0.017,0.0178,0.0206,0.0301,0.0369,0.0458,0.0566,0.0689,0.0782,0.0926,0.1156,0.1219,0.1036,0.0817,0.0448,0.0225,-0.0322,-0.0156,-0.0395,-0.0613,-0.068,-0.0751,-0.0284,-0.0262,-0.0263,-0.0264,-0.0265,-0.0266,0.0249,0.0301,0.0361,0.0468,0.0545,0.072,0.0863,0.1018,0.1242,0.1513,0.1529,0.166,0.1267,0.078,0.0461,-0.0156,-0.0177,-0.0383,-0.0504,-0.0577,-0.0661,-0.0125,-0.0073,-0.0073,-0.0073,-0.0073,-0.0074,0,0.0387,0.045,0.0539,0.0686,0.0832,0.0839,0.108,0.1259,0.1584,0.176,0.1947,0.1824,0.1331,0.0754,-0.004,-0.0454,-0.0659,-0.0709,-0.0899,-0.0949,-0.0517,-0.0528,-0.0516,-0.0516,-0.0516,-0.0516,-0.0515,-0.0515,0.0472,0.0609,0.0666,0.0944,0.1054,0.1296,0.1468,0.1697,0.1864,0.2119,0.2174,0.2182,0.1734,0.0297,-0.0682,-0.0905,-0.1248,-0.1266,-0.1431,-0.1225,-0.1207,-0.1191,-0.1233,-0.137,-0.1371,-0.1829,-0.1834,-0.1838]}],[{"header":{"parameterUnit":"m.s-1","parameterCategory":2,"la1":30.2991,"la2":30.254,"lo1":-89.0895,"lo2":-89.0444,"dy":0.0017,"dx":0.0017,"nx":28,"ny":28,"refTime":"2025-08-08T21:00:00:Z","depth":"2","parameterNumber":2,"parameterNumberName":"U-component_of_CURRENTS"},"data":[0,0,0,0,0,0,0,0,0,0,0,0,0,0,0,0,0,0,0,0,0,0,0,0,0,0,0,0,0,0,0,0,0,0,0,0,0,0,0,0,0,0,0,0,0,0,0,0,0,0,0,0,0,0,0,0,0,0,0.1928,0.193,0,0.1998,0.1998,0.1998,0.2017,0.2017,0.2017,0.2018,0.205,0.2051,0.2052,0,0,0,0,0,0,0,0,0,0,0,0,0,0.183,0.1831,0.1928,0.193,0.1931,0.1998,0.1998,0.1998,0.2017,0.2017,0.2017,0.2018,0.205,0.2051,0.2052,0,0,0,0,0,0,0,0,0,0,0,0,0,0.1877,0.1831,0.1928,0.1954,0.1957,0.1998,0.1998,0.1999,0.2017,0.2017,0.2017,0.2018,0.205,0.2051,0.2052,0.205,0,0,0.2055,0.2055,0,0,0,0,0,0,0,0,0.1874,0.1879,0.1948,0.1952,0.1956,0.2005,0.1976,0.2017,0.2017,0.1986,0.2018,0.2018,0.2036,0.2038,0.2041,0.2052,0.2053,0.2055,0.2055,0.2056,0.2056,0,0,0,0,0,0,0,0.1871,0.1877,0.1948,0.195,0.1955,0.1969,0.1975,0.1984,0.2002,0.1989,0.1992,0.2012,0.2037,0.204,0.2042,0.2054,0.2055,0.2056,0.2056,0.2057,0.2104,0.2105,0,0,0,0,0,0,0.1875,0.1873,0.1946,0.1951,0.1923,0.1971,0.1977,0.1983,0.2003,0.2009,0.2011,0.2012,0.2038,0.2041,0.2043,0.2083,0.2056,0.2057,0.2057,0.2104,0.2105,0.2105,0,0,0,0,0,0,0.1873,0.188,0.1944,0.192,0.193,0.1973,0.1979,0.1985,0.2011,0.2022,0.2025,0.2036,0.2038,0.2042,0.2069,0.2083,0.2057,0.2058,0.2103,0.2104,0.2105,0.2136,0,0,0,0,0,0,0.1869,0.1879,0.1892,0.192,0.1932,0.1989,0.198,0.1986,0.2024,0.2027,0.2043,0.2045,0.2039,0.2068,0.207,0.2083,0.2059,0.2102,0.2103,0.2105,0.2134,0.2138,0.2142,0,0,0,0,0,0.1865,0.1901,0.1891,0.1902,0.1946,0.1991,0.1998,0.2024,0.2026,0.2046,0.2052,0.2046,0.2077,0.207,0.2072,0.2086,0.2101,0.2103,0.2105,0.2133,0.2137,0.2141,0,0,0,0,0,0,0.1877,0.1907,0.1898,0.1941,0.1967,0.1997,0.2026,0.2038,0.2058,0.2056,0.2059,0.2062,0.2091,0.2086,0.2077,0.2103,0.2087,0.2089,0.2107,0.2112,0.2115,0.2121,0.206,0,0,0,0,0,0.188,0.1903,0.1931,0.1963,0.1976,0.1997,0.2021,0.2034,0.2057,0.2067,0.2078,0.2084,0.2095,0.2103,0.2111,0.2128,0.2139,0.2137,0.2141,0.2144,0.215,0.2157,0.2162,0.211,0.211,0.211,0,0,0.1891,0.1913,0.1925,0.1965,0.1979,0.201,0.2011,0.2051,0.2075,0.2066,0.2101,0.2103,0.2104,0.2123,0.2134,0.2122,0.2173,0.2146,0.2148,0.2153,0.216,0.2165,0.2169,0.2111,0.2111,0.2111,0,0,0.1923,0.1941,0.1962,0.1986,0.202,0.2036,0.2054,0.2085,0.2098,0.2125,0.2124,0.2142,0.2155,0.2161,0.2164,0.2195,0.2195,0.2192,0.2211,0.2219,0.2223,0.2227,0.2285,0.2293,0.2189,0.2189,0.2189,0,0.193,0.1959,0.1979,0.2007,0.2029,0.2051,0.2075,0.21,0.2137,0.2137,0.2141,0.2161,0.2173,0.2191,0.2205,0.2204,0.2219,0.2194,0.2223,0.2227,0.223,0.2289,0.2298,0.219,0.219,0.219,0.219,0,0.1965,0.1994,0.2016,0.2043,0.2073,0.2103,0.2132,0.2153,0.2164,0.2174,0.2194,0.2209,0.2212,0.2225,0.2228,0.2255,0.2265,0.223,0.2212,0.2237,0.2298,0.2307,0.2193,0.2192,0.2192,0.2191,0,0,0.1951,0.202,0.2025,0.2026,0.2089,0.21,0.2148,0.2172,0.2176,0.221,0.222,0.2253,0.2246,0.225,0.2256,0.2277,0.2336,0.2266,0.2266,0.2326,0.2389,0.2393,0.2403,0.2295,0.2296,0.2297,0.2436,0,0.1958,0.1999,0.2045,0.2074,0.2086,0.2122,0.2152,0.2176,0.2197,0.2216,0.2236,0.2255,0.2259,0.2261,0.2282,0.2322,0.2355,0.2305,0.2354,0.2357,0.2356,0.2411,0.2213,0.2318,0.2444,0.2446,0.2447,0,0.196,0.1987,0.2016,0.2046,0.2052,0.2076,0.2091,0.2126,0.2169,0.2184,0.221,0.2233,0.2294,0.228,0.2365,0.2328,0.2363,0.2397,0.2401,0.2396,0.2376,0.2305,0.2329,0.2461,0.246,0.2459,0.2458,0,0.1896,0.1956,0.1966,0.1983,0.2035,0.2035,0.2059,0.2098,0.2137,0.2173,0.2223,0.2247,0.2316,0.2331,0.2446,0.2386,0.2559,0.2471,0.2516,0.2519,0.2358,0.2344,0.2521,0.252,0.252,0.252,0.2519,0,0.1878,0.188,0.1927,0.193,0.1931,0.1971,0.1988,0.2015,0.2088,0.2162,0.2201,0.2296,0.2333,0.245,0.2471,0.257,0.2581,0.2546,0.255,0.2369,0.2355,0.2468,0.246,0.2525,0.2524,0.2523,0.2522,0,0.1815,0.1852,0.1859,0.1895,0.1905,0.1899,0.1983,0.2004,0.208,0.2194,0.2227,0.2369,0.2512,0.2593,0.2681,0.2647,0.2703,0.2736,0.2562,0.2542,0.264,0.2632,0.2732,0.2733,0.2734,0.2735,0.2736,0,0.1789,0.1787,0.1824,0.1841,0.1862,0.1882,0.1913,0.1986,0.2054,0.2264,0.2335,0.252,0.2626,0.2786,0.2781,0.2819,0.2843,0.2644,0.2465,0.2666,0.266,0.2651,0.2641,0.2285,0.2282,0.228,0.2278,0,0.1743,0.1755,0.177,0.1814,0.184,0.1883,0.1947,0.2008,0.2141,0.2228,0.2406,0.2497,0.2691,0.2643,0.2729,0.2707,0.2598,0.2593,0.285,0.2264,0.2255,0.2246,0.2249,0.2255,0.2258,0.2259,0.226,0.2261,0.1711,0.1718,0.1756,0.1792,0.1832,0.1894,0.1928,0.2002,0.2087,0.2208,0.2361,0.2409,0.2476,0.2469,0.245,0.243,0.2558,0.2392,0.2394,0.24,0.2325,0.2318,0.232,0.2323,0.2325,0.2327,0.2329,0,0.1689,0.1712,0.1745,0.1796,0.1836,0.187,0.1964,0.1959,0.2016,0.2099,0.2165,0.2035,0.2043,0.2136,0.2065,0.2062,0.1977,0.1979,0.1838,0.1865,0.1888,0.1779,0.1633,0.1631,0.1628,0.1626,0,0,0.1684,0.1708,0.1732,0.1793,0.1832,0.1868,0.1914,0.1846,0.187,0.1811,0.1794,0.1923,0.2052,0.1793,0.179,0.1705,0.1755,0.1642,0.2209,0.207,0.2089,0.2151,0.2019,0,0,0,0,0]},{"header":{"parameterUnit":"m.s-1","parameterCategory":2,"la1":30.2991,"la2":30.254,"lo1":-89.0895,"lo2":-89.0444,"dy":0.0017,"dx":0.0017,"nx":28,"ny":28,"refTime":"2025-08-08T21:00:00:Z","depth":"2","parameterNumber":3,"parameterNumberName":"V-component_of_CURRENTS"},"data":[0,0,0,0,0,0,0,0,0,0,0,0,0,0,0,0,0,0,0,0,0,0,0,0,0,0,0,0,0,0,0,0,0,0,0,0,0,0,0,0,0,0,0,0,0,0,0,0,0,0,0,0,0,0,0,0,0,0,-0.0135,-0.0136,0,-0.0209,-0.021,-0.0211,-0.0259,-0.0259,-0.026,-0.026,-0.0381,-0.0383,-0.0386,0,0,0,0,0,0,0,0,0,0,0,0,0,-0.0084,-0.0084,-0.0135,-0.0136,-0.0137,-0.0209,-0.021,-0.0211,-0.0259,-0.0259,-0.026,-0.026,-0.038,-0.0383,-0.0386,0,0,0,0,0,0,0,0,0,0,0,0,0,-0.0124,-0.0084,-0.0135,-0.0171,-0.0176,-0.0209,-0.021,-0.0211,-0.0258,-0.0259,-0.026,-0.0261,-0.0379,-0.0383,-0.0387,-0.0397,0,0,-0.0399,-0.0401,0,0,0,0,0,0,0,0,-0.0122,-0.0126,-0.0165,-0.0169,-0.0174,-0.0228,-0.0236,-0.0276,-0.0258,-0.0224,-0.026,-0.0261,-0.0335,-0.0343,-0.0351,-0.0402,-0.0408,-0.04,-0.0402,-0.0404,-0.0405,0,0,0,0,0,0,0,-0.0119,-0.0123,-0.0162,-0.0166,-0.0172,-0.0201,-0.0207,-0.0244,-0.0273,-0.0227,-0.0232,-0.0243,-0.0337,-0.0347,-0.0354,-0.0409,-0.04,-0.0403,-0.0406,-0.0407,-0.0511,-0.0511,0,0,0,0,0,0,-0.0111,-0.012,-0.016,-0.0164,-0.0152,-0.0202,-0.0208,-0.0208,-0.0272,-0.0283,-0.0243,-0.0246,-0.0339,-0.0349,-0.0359,-0.0416,-0.0404,-0.0408,-0.041,-0.051,-0.0511,-0.0511,0,0,0,0,0,0,-0.0109,-0.0113,-0.0157,-0.0147,-0.0155,-0.0202,-0.0201,-0.0209,-0.0229,-0.0284,-0.0295,-0.0257,-0.034,-0.0353,-0.0402,-0.042,-0.041,-0.0413,-0.051,-0.051,-0.0511,-0.0504,0,0,0,0,0,0,-0.0107,-0.0112,-0.0112,-0.0146,-0.0155,-0.018,-0.02,-0.021,-0.0236,-0.024,-0.0299,-0.0311,-0.0342,-0.0395,-0.0406,-0.0425,-0.0417,-0.051,-0.051,-0.0511,-0.0504,-0.0504,-0.0505,0,0,0,0,0,-0.0105,-0.0111,-0.0111,-0.0116,-0.0152,-0.018,-0.0188,-0.0223,-0.0236,-0.0244,-0.0286,-0.0309,-0.0406,-0.0399,-0.0411,-0.0432,-0.0509,-0.051,-0.0511,-0.0504,-0.0504,-0.0505,0,0,0,0,0,0,-0.0093,-0.0117,-0.0118,-0.0131,-0.0151,-0.019,-0.0203,-0.0224,-0.0261,-0.0267,-0.0317,-0.0331,-0.038,-0.0402,-0.0393,-0.0461,-0.046,-0.0463,-0.0451,-0.0452,-0.0452,-0.0434,-0.042,0,0,0,0,0,-0.0086,-0.0094,-0.0118,-0.0127,-0.0133,-0.0164,-0.0182,-0.0202,-0.0239,-0.0257,-0.0301,-0.0346,-0.0388,-0.0417,-0.0454,-0.0493,-0.0499,-0.0512,-0.0512,-0.0513,-0.0505,-0.0535,-0.0537,-0.0513,-0.0513,-0.0513,0,0,-0.0084,-0.0098,-0.0104,-0.0125,-0.0139,-0.0155,-0.0176,-0.0199,-0.0222,-0.0264,-0.0311,-0.0349,-0.0398,-0.0443,-0.0466,-0.0468,-0.0519,-0.0513,-0.0513,-0.0505,-0.0536,-0.0538,-0.054,-0.0514,-0.0513,-0.0513,0,0,-0.0084,-0.0091,-0.0094,-0.011,-0.0133,-0.0153,-0.0159,-0.0197,-0.0219,-0.0264,-0.0301,-0.0346,-0.0414,-0.0451,-0.0479,-0.0501,-0.0517,-0.0515,-0.0509,-0.0539,-0.0541,-0.0543,-0.0538,-0.0539,-0.0518,-0.0518,-0.0518,0,-0.0079,-0.0083,-0.0101,-0.0109,-0.0121,-0.0151,-0.0156,-0.0187,-0.0241,-0.0256,-0.0278,-0.037,-0.0418,-0.0468,-0.0482,-0.0503,-0.0508,-0.0506,-0.0539,-0.0541,-0.0543,-0.0538,-0.054,-0.0518,-0.0518,-0.0518,-0.0518,0,-0.0077,-0.0085,-0.0089,-0.0103,-0.0119,-0.013,-0.0165,-0.0188,-0.022,-0.0253,-0.0306,-0.0369,-0.0416,-0.0448,-0.048,-0.052,-0.0513,-0.0534,-0.0537,-0.0545,-0.0539,-0.0541,-0.0518,-0.0518,-0.0518,-0.0518,0,0,-0.0062,-0.0079,-0.0086,-0.0082,-0.0113,-0.0124,-0.0152,-0.018,-0.0187,-0.0258,-0.0269,-0.0371,-0.0393,-0.0424,-0.0468,-0.0509,-0.0537,-0.0529,-0.0531,-0.052,-0.0576,-0.0576,-0.0577,-0.0567,-0.0567,-0.0568,-0.0559,0,-0.0051,-0.0054,-0.0072,-0.0082,-0.0079,-0.0107,-0.0126,-0.0159,-0.0189,-0.0209,-0.0281,-0.0308,-0.0388,-0.0395,-0.0458,-0.0503,-0.0544,-0.0535,-0.0572,-0.0572,-0.0569,-0.0581,-0.0554,-0.0545,-0.0561,-0.0562,-0.0562,0,-0.0045,-0.0045,-0.0041,-0.0048,-0.0048,-0.0061,-0.0069,-0.0089,-0.0126,-0.0141,-0.0189,-0.023,-0.0293,-0.0351,-0.0459,-0.0447,-0.0514,-0.0562,-0.0563,-0.0566,-0.0577,-0.0543,-0.0548,-0.0566,-0.0565,-0.0565,-0.0565,0,-0.0018,-0.003,-0.0019,-0.0024,-0.0037,-0.0036,-0.0043,-0.0069,-0.0044,-0.0078,-0.0042,-0.0155,-0.0154,-0.0281,-0.0392,-0.0421,-0.049,-0.0538,-0.0603,-0.0601,-0.0586,-0.0583,-0.0621,-0.0621,-0.0621,-0.0621,-0.0621,0,-0.0,0.0003,-0.0003,0.0001,0.0031,0.0002,0.0041,0.0021,0.0042,0.0099,0.0008,0.004,-0.0137,-0.0198,-0.0343,-0.0462,-0.0454,-0.0595,-0.0607,-0.0581,-0.0578,-0.0606,-0.0604,-0.0621,-0.0621,-0.0621,-0.0621,0,0.0032,0.0019,0.0042,0.0041,0.0048,0.0072,0.013,0.017,0.0175,0.0261,0.0273,0.0214,0.0123,-0.0045,-0.0216,-0.0356,-0.0495,-0.0542,-0.0482,-0.0489,-0.0598,-0.0596,-0.0617,-0.0618,-0.0618,-0.0618,-0.0618,0,0.0055,0.0066,0.0091,0.0131,0.0137,0.0181,0.0229,0.0238,0.0309,0.0372,0.0434,0.0378,0.0331,0.0091,-0.0162,-0.0394,-0.045,-0.0511,-0.059,-0.0593,-0.0601,-0.0599,-0.0597,-0.0554,-0.0554,-0.0553,-0.0553,0,0.0114,0.0119,0.0145,0.0229,0.0281,0.0353,0.0424,0.0495,0.0535,0.0583,0.0629,0.059,0.0393,0.0149,-0.0143,-0.031,-0.0482,-0.0512,-0.0523,-0.0565,-0.0534,-0.0543,-0.0543,-0.0549,-0.055,-0.055,-0.055,-0.055,0.0174,0.0214,0.0261,0.0331,0.0415,0.0515,0.0564,0.0644,0.0719,0.0792,0.0761,0.0714,0.0475,0.0086,-0.0171,-0.0431,-0.0455,-0.0565,-0.0566,-0.0567,-0.0567,-0.0539,-0.0552,-0.0553,-0.0553,-0.0553,-0.0553,0,0.0248,0.029,0.0369,0.0458,0.0552,0.0584,0.0694,0.0726,0.0786,0.087,0.0864,0.0654,0.0407,0.0151,-0.0234,-0.0485,-0.0515,-0.0555,-0.0542,-0.0544,-0.0546,-0.0546,-0.0526,-0.0526,-0.0526,-0.0527,0,0,0.0296,0.0367,0.0389,0.054,0.0624,0.0721,0.0765,0.0806,0.0857,0.0888,0.0885,0.0835,0.0515,0.0246,-0.0089,-0.0299,-0.0365,-0.0342,-0.0342,-0.029,-0.0289,-0.0533,-0.0532,0,0,0,0,0]}],[{"header":{"parameterUnit":"m.s-1","parameterCategory":2,"la1":30.2991,"la2":30.254,"lo1":-89.0895,"lo2":-89.0444,"dy":0.0017,"dx":0.0017,"nx":28,"ny":28,"refTime":"2025-08-08T21:00:00:Z","depth":"4","parameterNumber":2,"parameterNumberName":"U-component_of_CURRENTS"},"data":[0,0,0,0,0,0,0,0,0,0,0,0,0,0,0,0,0,0,0,0,0,0,0,0,0,0,0,0,0,0,0,0,0,0,0,0,0,0,0,0,0,0,0,0,0,0,0,0,0,0,0,0,0,0,0,0,0,0,0.1053,0.1054,0,0.1103,0.1104,0.1104,0.115,0.1151,0.1151,0.1152,0.1216,0.1217,0.1218,0,0,0,0,0,0,0,0,0,0,0,0,0,0.0982,0.0983,0.1053,0.1054,0.1054,0.1103,0.1104,0.1104,0.115,0.1151,0.1151,0.1152,0.1216,0.1217,0.1219,0,0,0,0,0,0,0,0,0,0,0,0,0,0.102,0.0984,0.1053,0.1084,0.1087,0.1103,0.1104,0.1105,0.115,0.1151,0.1152,0.1152,0.1215,0.1217,0.1219,0.1209,0,0,0.1224,0.1224,0,0,0,0,0,0,0,0,0.1017,0.1022,0.1079,0.1082,0.1086,0.1123,0.1103,0.1141,0.1149,0.1124,0.1152,0.1153,0.1186,0.119,0.1196,0.1212,0.1215,0.1224,0.1225,0.1226,0.1226,0,0,0,0,0,0,0,0.1015,0.102,0.1072,0.1079,0.1084,0.1091,0.1097,0.111,0.1148,0.1127,0.113,0.1138,0.1188,0.1194,0.1197,0.1216,0.1224,0.1225,0.1226,0.1227,0.1311,0.1312,0,0,0,0,0,0,0.1011,0.1018,0.107,0.1073,0.1055,0.1092,0.1099,0.1109,0.1148,0.1155,0.1137,0.114,0.1191,0.1196,0.12,0.1271,0.1226,0.1227,0.1228,0.131,0.1311,0.1313,0,0,0,0,0,0,0.1009,0.1015,0.1068,0.1047,0.1055,0.1092,0.1103,0.1109,0.1142,0.1156,0.1164,0.1166,0.1192,0.1198,0.1238,0.1271,0.1228,0.1229,0.1308,0.131,0.1312,0.1361,0,0,0,0,0,0,0.1007,0.1014,0.103,0.1047,0.1056,0.1092,0.1102,0.1109,0.1144,0.1149,0.1183,0.1188,0.1193,0.1236,0.124,0.1272,0.1231,0.1307,0.1309,0.1312,0.1358,0.1365,0.137,0,0,0,0,0,0.1004,0.1015,0.103,0.1037,0.1073,0.1093,0.1098,0.1126,0.1144,0.1159,0.1189,0.1189,0.1254,0.1238,0.1242,0.1276,0.1306,0.1309,0.1311,0.1356,0.1364,0.137,0,0,0,0,0,0,0.0992,0.1021,0.1038,0.1059,0.1083,0.1101,0.1122,0.1139,0.1173,0.1189,0.1202,0.121,0.1258,0.1258,0.124,0.1307,0.1281,0.1284,0.1313,0.132,0.1326,0.1306,0.1232,0,0,0,0,0,0.0996,0.1016,0.1041,0.1061,0.1076,0.1105,0.1121,0.1141,0.1168,0.1186,0.1211,0.124,0.1267,0.1287,0.1306,0.1341,0.1346,0.1366,0.1372,0.1377,0.1364,0.1427,0.1438,0.1322,0.1322,0.1322,0,0,0.0995,0.1017,0.1027,0.1061,0.1085,0.1106,0.1118,0.1151,0.1175,0.1186,0.1237,0.1262,0.1281,0.1323,0.1345,0.1332,0.1411,0.1381,0.1385,0.1369,0.1431,0.1443,0.1453,0.1324,0.1324,0.1323,0,0,0.0995,0.1027,0.1041,0.1066,0.1107,0.1123,0.1138,0.1175,0.1203,0.1249,0.1266,0.1309,0.1353,0.1371,0.1385,0.1433,0.144,0.1449,0.1467,0.153,0.154,0.1548,0.1561,0.157,0.1454,0.1454,0.1454,0,0.0995,0.1018,0.1048,0.1072,0.1095,0.1134,0.1153,0.1184,0.1231,0.1261,0.1275,0.136,0.1373,0.1424,0.1437,0.1447,0.147,0.144,0.1538,0.1547,0.1555,0.1566,0.1576,0.1457,0.1457,0.1456,0.1456,0,0.1003,0.103,0.1044,0.1088,0.1113,0.114,0.1182,0.1224,0.1269,0.1303,0.1379,0.1409,0.1461,0.1475,0.1467,0.1534,0.1525,0.1539,0.1519,0.157,0.1577,0.1587,0.1461,0.146,0.1459,0.1458,0,0,0.0972,0.1036,0.1043,0.1065,0.1127,0.1143,0.1199,0.1252,0.1306,0.1365,0.1431,0.1477,0.1512,0.1527,0.1543,0.158,0.1648,0.1582,0.1584,0.1591,0.1762,0.1661,0.1661,0.1696,0.1698,0.1699,0.174,0,0.097,0.101,0.1044,0.1082,0.1104,0.1162,0.1204,0.1265,0.134,0.1417,0.147,0.1543,0.153,0.1575,0.1611,0.1647,0.1677,0.1633,0.1712,0.1713,0.1617,0.1671,0.1706,0.1747,0.1749,0.1751,0.1752,0,0.0959,0.0991,0.1026,0.1083,0.1099,0.1132,0.1225,0.1273,0.1387,0.1456,0.1548,0.16,0.1665,0.1655,0.1739,0.1721,0.1735,0.175,0.1754,0.1644,0.163,0.1689,0.1769,0.1768,0.1766,0.1765,0.1764,0,0.0909,0.0971,0.0998,0.1021,0.1095,0.1131,0.1181,0.1291,0.1353,0.1501,0.1575,0.1669,0.1723,0.1782,0.1803,0.1797,0.1879,0.1885,0.1797,0.1789,0.1845,0.1835,0.1935,0.1935,0.1935,0.1935,0.1935,0,0.0878,0.0901,0.0985,0.0998,0.1046,0.111,0.1196,0.1269,0.1395,0.1479,0.1596,0.167,0.1761,0.1815,0.1836,0.1836,0.1918,0.1795,0.1802,0.1862,0.1854,0.1851,0.184,0.1937,0.1936,0.1936,0.1936,0,0.0813,0.0866,0.0908,0.0994,0.1021,0.1065,0.1191,0.1261,0.1389,0.1508,0.1558,0.1683,0.177,0.1827,0.1906,0.1859,0.1887,0.1859,0.189,0.1899,0.1743,0.1735,0.1782,0.1779,0.1777,0.1774,0.1773,0,0.0786,0.0795,0.0894,0.0935,0.098,0.1066,0.1123,0.125,0.1331,0.1507,0.1544,0.1662,0.1742,0.1763,0.183,0.1868,0.1844,0.1824,0.1795,0.1729,0.1732,0.1728,0.1723,0.1769,0.1768,0.1767,0.1767,0,0.0733,0.0777,0.082,0.0895,0.0962,0.1037,0.113,0.1172,0.1323,0.1439,0.1525,0.1583,0.1657,0.1712,0.1733,0.1759,0.1831,0.1797,0.1802,0.1775,0.1714,0.1718,0.1716,0.1758,0.1759,0.176,0.176,0,0.0707,0.0733,0.0795,0.086,0.0937,0.0987,0.1046,0.1135,0.121,0.1391,0.1411,0.1548,0.1643,0.1655,0.169,0.1698,0.1685,0.1626,0.164,0.1651,0.1589,0.1491,0.1474,0,0,0,0,0,0.0679,0.0701,0.0756,0.0824,0.0897,0.0939,0.1039,0.1105,0.1235,0.1267,0.134,0.142,0.1488,0.1545,0.1532,0.1631,0.1681,0.1607,0.1617,0.1708,0.1719,0.1659,0,0,0,0,0,0,0.0662,0.0706,0.0736,0.0782,0.0818,0.0885,0.0947,0.1031,0.1058,0.1193,0.1237,0.1338,0.142,0.149,0.1508,0.1525,0.1504,0.1684,0.1681,0.1703,0.1712,0.172,0.1662,0,0,0,0,0]},{"header":{"parameterUnit":"m.s-1","parameterCategory":2,"la1":30.2991,"la2":30.254,"lo1":-89.0895,"lo2":-89.0444,"dy":0.0017,"dx":0.0017,"nx":28,"ny":28,"refTime":"2025-08-08T21:00:00:Z","depth":"4","parameterNumber":3,"parameterNumberName":"V-component_of_CURRENTS"},"data":[0,0,0,0,0,0,0,0,0,0,0,0,0,0,0,0,0,0,0,0,0,0,0,0,0,0,0,0,0,0,0,0,0,0,0,0,0,0,0,0,0,0,0,0,0,0,0,0,0,0,0,0,0,0,0,0,0,0,0.0037,0.0036,0,0.0007,0.0006,0.0006,-0.0026,-0.0026,-0.0027,-0.0027,-0.009,-0.0092,-0.0093,0,0,0,0,0,0,0,0,0,0,0,0,0,0.0026,0.0026,0.0037,0.0036,0.0036,0.0007,0.0006,0.0006,-0.0026,-0.0026,-0.0027,-0.0027,-0.009,-0.0092,-0.0093,0,0,0,0,0,0,0,0,0,0,0,0,0,0.0016,0.0026,0.0037,0.0017,0.0015,0.0007,0.0006,0.0006,-0.0026,-0.0026,-0.0027,-0.0027,-0.0089,-0.0091,-0.0093,-0.0094,0,0,-0.01,-0.01,0,0,0,0,0,0,0,0,0.0017,0.0016,0.002,0.0019,0.0016,-0.0006,-0.0021,-0.0029,-0.0026,-0.0011,-0.0027,-0.0028,-0.0064,-0.0068,-0.0073,-0.0097,-0.01,-0.01,-0.0101,-0.0102,-0.0102,0,0,0,0,0,0,0,0.0017,0.0017,0.0024,0.002,0.0018,-0.0004,-0.0006,-0.0023,-0.0035,-0.0012,-0.0014,-0.0016,-0.0066,-0.0071,-0.0075,-0.0101,-0.01,-0.0101,-0.0103,-0.0103,-0.0137,-0.0136,0,0,0,0,0,0,0.0026,0.0018,0.0025,0.0023,0.0016,-0.0003,-0.0005,0.0001,-0.0034,-0.004,-0.0016,-0.0018,-0.0068,-0.0073,-0.0078,-0.0059,-0.0102,-0.0104,-0.0105,-0.0137,-0.0137,-0.0136,0,0,0,0,0,0,0.0026,0.0027,0.0026,0.002,0.0018,-0.0002,0.0005,0.0001,-0.0006,-0.0037,-0.0043,-0.0019,-0.0068,-0.0075,-0.0089,-0.0063,-0.0105,-0.0106,-0.0137,-0.0137,-0.0136,-0.0036,0,0,0,0,0,0,0.0026,0.0027,0.0033,0.0021,0.0019,0.0033,0.0006,0.0001,-0.0006,-0.0009,-0.0041,-0.0048,-0.0069,-0.0086,-0.0091,-0.0066,-0.0108,-0.0138,-0.0137,-0.0137,-0.004,-0.0032,-0.0026,0,0,0,0,0,0.0025,0.0047,0.0034,0.0034,0.0029,0.0034,0.0031,0.0013,-0.0005,0.0002,-0.0025,-0.0047,-0.0086,-0.0087,-0.0093,-0.0068,-0.0138,-0.0137,-0.0137,-0.0043,-0.0034,-0.0026,0,0,0,0,0,0,0.0049,0.0045,0.0031,0.005,0.0043,0.0029,0.0033,0.0016,0.0001,-0.0006,-0.0041,-0.0048,-0.0052,-0.008,-0.008,-0.008,-0.0116,-0.0117,-0.0043,-0.0034,-0.0028,-0.0002,-0.011,0,0,0,0,0,0.0056,0.0069,0.0057,0.0072,0.007,0.0049,0.0046,0.0034,0.0019,0.0011,-0.0012,-0.0039,-0.0054,-0.006,-0.0082,-0.0078,-0.0116,-0.0069,-0.0062,-0.0056,-0.0041,-0.0077,-0.0071,-0.0134,-0.0134,-0.0134,0,0,0.007,0.0068,0.0075,0.0077,0.0068,0.0086,0.0046,0.0049,0.0067,0.0007,0.0018,-0.0017,-0.005,-0.0045,-0.0049,-0.0063,-0.0061,-0.0055,-0.0049,-0.0038,-0.0076,-0.007,-0.0064,-0.0133,-0.0134,-0.0134,0,0,0.0112,0.0101,0.0127,0.0126,0.0119,0.0111,0.0114,0.0099,0.0094,0.0095,0.0058,0.0041,0.0016,0.0006,-0.0004,0.0026,-0.0027,0.0012,0.0078,0.0043,0.0049,0.0053,0.0004,0.0003,0.0022,0.0022,0.0022,0,0.0128,0.0158,0.0135,0.0159,0.0166,0.0128,0.0159,0.0155,0.0138,0.0137,0.0111,0.0075,0.0047,0.006,0.0073,0.0047,0.0007,0.0054,0.0055,0.0058,0.0061,0.0009,0.0007,0.0027,0.0026,0.0026,0.0025,0,0.0189,0.021,0.0226,0.0246,0.025,0.0269,0.026,0.026,0.0239,0.0229,0.0223,0.0181,0.0157,0.015,0.0125,0.0136,0.0094,0.0065,0.0041,0.0074,0.0016,0.0012,0.0034,0.0032,0.0031,0.0029,0,0,0.0233,0.0265,0.0269,0.0286,0.0296,0.0304,0.0335,0.0347,0.0354,0.0336,0.0339,0.0328,0.0284,0.0269,0.0229,0.0213,0.0196,0.0157,0.0153,0.0121,0.0104,0.0055,0.0045,0.0165,0.0165,0.0165,0.0054,0,0.0286,0.0345,0.0351,0.0405,0.0429,0.0412,0.0442,0.0443,0.0424,0.0414,0.038,0.0361,0.0337,0.031,0.0298,0.0206,0.019,0.0228,0.0066,0.0061,0.0024,0.0041,0.0166,0.005,0.0049,0.0048,0.0048,0,0.0342,0.0371,0.0434,0.047,0.048,0.051,0.0523,0.0543,0.0526,0.0505,0.0486,0.0434,0.0409,0.0369,0.0275,0.0295,0.0219,0.0158,0.0151,0.0071,0.0005,0.0009,0.0039,0.004,0.0041,0.0041,0.0042,0,0.0363,0.0427,0.0476,0.049,0.0529,0.0553,0.0571,0.057,0.0569,0.0549,0.0518,0.0489,0.0427,0.0365,0.0234,0.0249,0.0105,0.01,-0.0006,-0.0012,0.0021,0.0018,0.0048,0.0048,0.0048,0.0049,0.0049,0,0.0407,0.0443,0.049,0.0513,0.0559,0.058,0.0614,0.0616,0.0607,0.0591,0.0557,0.0508,0.042,0.0318,0.0237,0.0088,0.0101,0.001,-0.0037,0.0063,0.0065,0.0017,0.0015,0.0044,0.0045,0.0046,0.0047,0,0.0407,0.0447,0.0494,0.0549,0.0568,0.0592,0.0626,0.0634,0.063,0.0597,0.0583,0.0497,0.0365,0.0262,0.0116,0.0058,-0.0058,-0.0112,-0.0015,-0.0057,-0.0148,-0.0143,-0.0221,-0.0224,-0.0226,-0.0228,-0.0229,0,0.0408,0.0437,0.0499,0.0518,0.0544,0.0587,0.0606,0.0634,0.063,0.0577,0.0544,0.0419,0.0348,0.0116,0.0014,-0.0143,-0.0159,-0.0212,-0.0138,-0.0133,-0.0172,-0.0165,-0.0158,-0.0233,-0.0233,-0.0234,-0.0234,0,0.0395,0.0419,0.045,0.0487,0.0519,0.0557,0.0588,0.0589,0.0598,0.0592,0.05,0.0391,0.0225,0.0087,-0.0055,-0.0159,-0.0164,-0.0233,-0.0228,-0.016,-0.0148,-0.0183,-0.0174,-0.0242,-0.0241,-0.024,-0.024,0,0.0364,0.0373,0.0408,0.0436,0.0479,0.0505,0.0542,0.0541,0.0547,0.0513,0.047,0.033,0.0257,0.0072,-0.0056,-0.0169,-0.0174,-0.0172,-0.0169,-0.0163,-0.0105,-0.008,-0.0188,0,0,0,0,0,0.0319,0.0321,0.0349,0.0382,0.0428,0.0454,0.0507,0.0542,0.0558,0.0498,0.0496,0.0354,0.0159,0.007,-0.005,-0.0103,-0.0205,-0.0247,-0.0204,-0.0283,-0.0274,-0.022,0,0,0,0,0,0,0.0283,0.0302,0.0322,0.033,0.0347,0.0393,0.0433,0.0457,0.0441,0.0446,0.0346,0.0319,0.0129,0.0214,-0.0062,-0.0098,-0.0084,-0.0332,-0.0334,-0.0287,-0.028,-0.0273,-0.0214,0,0,0,0,0]}]]